PRIVATE WETTERSTATION BILLIGHEIM-ALLFELD                       ZURCK
Wetterdaten: Mittwoch, 02.08.2017
Datum Zeit Temp. A. Temp. A. min Temp. A. max Feuchte A. Luftdruck Regen Wind Richtung Richtung Sonnenschein ET Solar Taupunkt Windchill Windben Empfang
02.08.2017 00:00 19,6 C 19,6 C 19,6 C 88 % 1016,7 hPa 0,2 l/m 0,0 km/h (0 Bft) N 0 0 min 0,000 mm 0 W/m 17,6 C 19,6 C 0,0 km/h (0 Bft) 98 %
02.08.2017 00:10 19,6 C 19,6 C 19,6 C 88 % 1016,9 hPa 0,0 l/m 0,0 km/h (0 Bft) N 0 0 min 0,000 mm 0 W/m 17,6 C 19,6 C 0,0 km/h (0 Bft) 98 %
02.08.2017 00:20 19,6 C 19,6 C 19,6 C 88 % 1017,0 hPa 0,0 l/m 0,0 km/h (0 Bft) O-SO 112 0 min 0,000 mm 0 W/m 17,6 C 19,6 C 1,6 km/h (1 Bft) 98 %
02.08.2017 00:30 19,6 C 19,6 C 19,6 C 88 % 1016,6 hPa 0,0 l/m 0,0 km/h (0 Bft) N 0 0 min 0,000 mm 0 W/m 17,6 C 19,6 C 0,0 km/h (0 Bft) 99 %
02.08.2017 00:40 19,5 C 19,5 C 19,6 C 88 % 1016,1 hPa 0,0 l/m 0,0 km/h (0 Bft) N 0 0 min 0,000 mm 0 W/m 17,5 C 19,5 C 0,0 km/h (0 Bft) 98 %
02.08.2017 00:50 19,4 C 19,4 C 19,6 C 88 % 1016,2 hPa 0,0 l/m 0,0 km/h (0 Bft) N 0 0 min 0,000 mm 0 W/m 17,4 C 19,4 C 0,0 km/h (0 Bft) 99 %
02.08.2017 01:00 19,4 C 19,4 C 19,4 C 88 % 1016,0 hPa 0,0 l/m 0,0 km/h (0 Bft) N 0 0 min 0,000 mm 0 W/m 17,4 C 19,4 C 0,0 km/h (0 Bft) 100 %
02.08.2017 01:10 19,3 C 19,3 C 19,4 C 88 % 1016,2 hPa 0,0 l/m 1,6 km/h (1 Bft) SO 135 0 min 0,000 mm 0 W/m 17,3 C 19,3 C 6,4 km/h (2 Bft) 99 %
02.08.2017 01:20 19,2 C 19,2 C 19,3 C 89 % 1016,4 hPa 0,0 l/m 0,0 km/h (0 Bft) N 0 0 min 0,000 mm 0 W/m 17,3 C 19,2 C 0,0 km/h (0 Bft) 98 %
02.08.2017 01:30 19,1 C 19,1 C 19,2 C 89 % 1016,1 hPa 0,0 l/m 0,0 km/h (0 Bft) SO 135 0 min 0,000 mm 0 W/m 17,2 C 19,1 C 1,6 km/h (1 Bft) 99 %
02.08.2017 01:40 19,1 C 19,1 C 19,1 C 88 % 1015,9 hPa 0,0 l/m 0,0 km/h (0 Bft) SO 135 0 min 0,000 mm 0 W/m 17,1 C 19,1 C 1,6 km/h (1 Bft) 99 %
02.08.2017 01:50 19,1 C 19,1 C 19,1 C 89 % 1016,0 hPa 0,0 l/m 0,0 km/h (0 Bft) N 0 0 min 0,000 mm 0 W/m 17,2 C 19,1 C 0,0 km/h (0 Bft) 99 %
02.08.2017 02:00 19,1 C 19,0 C 19,1 C 89 % 1016,2 hPa 0,0 l/m 0,0 km/h (0 Bft) N 0 0 min 0,000 mm 0 W/m 17,2 C 19,1 C 0,0 km/h (0 Bft) 100 %
02.08.2017 02:10 19,0 C 18,9 C 19,1 C 89 % 1016,2 hPa 0,0 l/m 0,0 km/h (0 Bft) N 0 0 min 0,000 mm 0 W/m 17,1 C 19,0 C 0,0 km/h (0 Bft) 100 %
02.08.2017 02:20 18,9 C 18,9 C 19,0 C 89 % 1016,1 hPa 0,0 l/m 0,0 km/h (0 Bft) N 0 0 min 0,000 mm 0 W/m 17,0 C 18,9 C 0,0 km/h (0 Bft) 100 %
02.08.2017 02:30 18,8 C 18,8 C 18,9 C 89 % 1016,1 hPa 0,0 l/m 0,0 km/h (0 Bft) N 0 0 min 0,000 mm 0 W/m 16,9 C 18,8 C 0,0 km/h (0 Bft) 100 %
02.08.2017 02:40 18,7 C 18,7 C 18,8 C 89 % 1016,2 hPa 0,0 l/m 0,0 km/h (0 Bft) N 0 0 min 0,000 mm 0 W/m 16,8 C 18,7 C 0,0 km/h (0 Bft) 100 %
02.08.2017 02:50 18,7 C 18,7 C 18,8 C 89 % 1016,4 hPa 0,0 l/m 0,0 km/h (0 Bft) SO 135 0 min 0,000 mm 0 W/m 16,8 C 18,7 C 1,6 km/h (1 Bft) 100 %
02.08.2017 03:00 18,7 C 18,7 C 18,7 C 89 % 1016,5 hPa 0,0 l/m 0,0 km/h (0 Bft) SO 135 0 min 0,000 mm 0 W/m 16,8 C 18,7 C 3,2 km/h (1 Bft) 99 %
02.08.2017 03:10 18,8 C 18,7 C 18,9 C 89 % 1016,5 hPa 0,0 l/m 0,0 km/h (0 Bft) SO 135 0 min 0,000 mm 0 W/m 16,9 C 18,8 C 4,8 km/h (1 Bft) 99 %
02.08.2017 03:20 19,1 C 18,9 C 19,1 C 89 % 1016,5 hPa 0,0 l/m 3,2 km/h (1 Bft) SO 135 0 min 0,000 mm 0 W/m 17,2 C 19,1 C 4,8 km/h (1 Bft) 99 %
02.08.2017 03:30 19,2 C 19,1 C 19,2 C 89 % 1016,5 hPa 0,0 l/m 4,8 km/h (1 Bft) S 180 0 min 0,000 mm 0 W/m 17,3 C 19,2 C 9,7 km/h (2 Bft) 89 %
02.08.2017 03:40 19,3 C 19,2 C 19,3 C 89 % 1016,6 hPa 0,0 l/m 6,4 km/h (2 Bft) S-SO 157 0 min 0,000 mm 0 W/m 17,4 C 19,3 C 11,3 km/h (2 Bft) 100 %
02.08.2017 03:50 19,2 C 19,2 C 19,3 C 89 % 1016,4 hPa 0,0 l/m 4,8 km/h (1 Bft) S-SO 157 0 min 0,000 mm 0 W/m 17,3 C 19,2 C 11,3 km/h (2 Bft) 99 %
02.08.2017 04:00 19,2 C 19,2 C 19,2 C 89 % 1016,2 hPa 0,0 l/m 6,4 km/h (2 Bft) S-SO 157 0 min 0,025 mm 0 W/m 17,3 C 19,2 C 14,5 km/h (3 Bft) 100 %
02.08.2017 04:10 19,1 C 19,1 C 19,2 C 89 % 1016,1 hPa 0,0 l/m 4,8 km/h (1 Bft) S-SO 157 0 min 0,000 mm 0 W/m 17,2 C 19,1 C 11,3 km/h (2 Bft) 100 %
02.08.2017 04:20 19,1 C 19,1 C 19,1 C 89 % 1015,8 hPa 0,0 l/m 3,2 km/h (1 Bft) S-SO 157 0 min 0,000 mm 0 W/m 17,2 C 19,1 C 6,4 km/h (2 Bft) 100 %
02.08.2017 04:30 19,0 C 19,0 C 19,1 C 89 % 1015,6 hPa 0,0 l/m 3,2 km/h (1 Bft) S-SO 157 0 min 0,000 mm 0 W/m 17,1 C 19,0 C 8,0 km/h (2 Bft) 100 %
02.08.2017 04:40 19,0 C 19,0 C 19,1 C 89 % 1015,6 hPa 0,0 l/m 3,2 km/h (1 Bft) S-SO 157 0 min 0,000 mm 0 W/m 17,1 C 19,0 C 6,4 km/h (2 Bft) 100 %
02.08.2017 04:50 19,0 C 19,0 C 19,1 C 89 % 1015,9 hPa 0,0 l/m 3,2 km/h (1 Bft) S-SO 157 0 min 0,000 mm 0 W/m 17,1 C 19,0 C 4,8 km/h (1 Bft) 100 %
02.08.2017 05:00 19,0 C 19,0 C 19,0 C 89 % 1016,1 hPa 0,0 l/m 1,6 km/h (1 Bft) S-SO 157 0 min 0,025 mm 0 W/m 17,1 C 19,0 C 4,8 km/h (1 Bft) 100 %
02.08.2017 05:10 18,9 C 18,9 C 19,0 C 89 % 1016,1 hPa 0,0 l/m 3,2 km/h (1 Bft) S-SO 157 0 min 0,000 mm 0 W/m 17,0 C 18,9 C 6,4 km/h (2 Bft) 100 %
02.08.2017 05:20 18,9 C 18,9 C 19,0 C 89 % 1016,3 hPa 0,0 l/m 3,2 km/h (1 Bft) S-SO 157 0 min 0,000 mm 0 W/m 17,0 C 18,9 C 6,4 km/h (2 Bft) 98 %
02.08.2017 05:30 18,9 C 18,9 C 18,9 C 89 % 1016,4 hPa 0,0 l/m 4,8 km/h (1 Bft) S-SO 157 0 min 0,000 mm 0 W/m 17,0 C 18,9 C 8,0 km/h (2 Bft) 100 %
02.08.2017 05:40 18,9 C 18,9 C 18,9 C 89 % 1016,4 hPa 0,0 l/m 4,8 km/h (1 Bft) S-SO 157 0 min 0,000 mm 0 W/m 17,0 C 18,9 C 9,7 km/h (2 Bft) 99 %
02.08.2017 05:50 18,9 C 18,9 C 19,0 C 89 % 1016,5 hPa 0,0 l/m 4,8 km/h (1 Bft) S-SO 157 0 min 0,000 mm 0 W/m 17,0 C 18,9 C 9,7 km/h (2 Bft) 100 %
02.08.2017 06:00 18,9 C 18,9 C 18,9 C 89 % 1016,6 hPa 0,0 l/m 3,2 km/h (1 Bft) S-SO 157 0 min 0,025 mm 0 W/m 17,0 C 18,9 C 8,0 km/h (2 Bft) 100 %
02.08.2017 06:10 19,1 C 18,9 C 19,1 C 89 % 1016,7 hPa 0,0 l/m 3,2 km/h (1 Bft) S-SO 157 0 min 0,000 mm 0 W/m 17,2 C 19,1 C 11,3 km/h (2 Bft) 99 %
02.08.2017 06:20 19,1 C 19,1 C 19,1 C 89 % 1016,7 hPa 0,0 l/m 4,8 km/h (1 Bft) S-SW 202 0 min 0,000 mm 0 W/m 17,2 C 19,1 C 9,7 km/h (2 Bft) 100 %
02.08.2017 06:30 19,2 C 19,1 C 19,2 C 89 % 1016,9 hPa 0,0 l/m 6,4 km/h (2 Bft) S-SW 202 0 min 0,000 mm 5 W/m 17,3 C 19,2 C 9,7 km/h (2 Bft) 100 %
02.08.2017 06:40 19,1 C 19,1 C 19,2 C 89 % 1017,0 hPa 0,0 l/m 4,8 km/h (1 Bft) SW 225 0 min 0,000 mm 12 W/m 17,2 C 19,1 C 14,5 km/h (3 Bft) 100 %
02.08.2017 06:50 19,1 C 19,1 C 19,1 C 89 % 1017,1 hPa 0,0 l/m 1,6 km/h (1 Bft) W 270 0 min 0,000 mm 25 W/m 17,2 C 19,1 C 9,7 km/h (2 Bft) 99 %
02.08.2017 07:00 19,0 C 19,0 C 19,1 C 89 % 1017,1 hPa 0,0 l/m 1,6 km/h (1 Bft) W 270 0 min 0,025 mm 40 W/m 17,1 C 19,0 C 11,3 km/h (2 Bft) 100 %
02.08.2017 07:10 18,9 C 18,9 C 19,0 C 89 % 1016,9 hPa 0,0 l/m 1,6 km/h (1 Bft) W-NW 292 0 min 0,000 mm 40 W/m 17,0 C 18,9 C 9,7 km/h (2 Bft) 100 %
02.08.2017 07:20 18,9 C 18,9 C 18,9 C 89 % 1017,2 hPa 0,0 l/m 0,0 km/h (0 Bft) N 0 0 min 0,000 mm 58 W/m 17,0 C 18,9 C 0,0 km/h (0 Bft) 100 %
02.08.2017 07:30 18,9 C 18,9 C 18,9 C 89 % 1017,5 hPa 0,0 l/m 0,0 km/h (0 Bft) N 0 0 min 0,000 mm 49 W/m 17,0 C 18,9 C 0,0 km/h (0 Bft) 100 %
02.08.2017 07:40 19,1 C 18,9 C 19,1 C 89 % 1017,5 hPa 0,0 l/m 0,0 km/h (0 Bft) N 0 0 min 0,000 mm 62 W/m 17,2 C 19,1 C 0,0 km/h (0 Bft) 99 %
02.08.2017 07:50 19,2 C 19,1 C 19,2 C 89 % 1017,5 hPa 0,0 l/m 0,0 km/h (0 Bft) N 0 0 min 0,000 mm 111 W/m 17,3 C 19,2 C 0,0 km/h (0 Bft) 100 %
02.08.2017 08:00 19,4 C 19,2 C 19,4 C 89 % 1017,7 hPa 0,0 l/m 0,0 km/h (0 Bft) W-NW 292 0 min 0,025 mm 142 W/m 17,5 C 19,4 C 1,6 km/h (1 Bft) 100 %
02.08.2017 08:10 19,5 C 19,4 C 19,5 C 89 % 1017,9 hPa 0,0 l/m 0,0 km/h (0 Bft) N 0 0 min 0,000 mm 125 W/m 17,6 C 19,5 C 0,0 km/h (0 Bft) 100 %
02.08.2017 08:20 19,6 C 19,5 C 19,6 C 89 % 1017,9 hPa 0,0 l/m 0,0 km/h (0 Bft) N 0 0 min 0,000 mm 142 W/m 17,7 C 19,6 C 0,0 km/h (0 Bft) 100 %
02.08.2017 08:30 19,7 C 19,6 C 19,7 C 89 % 1017,9 hPa 0,0 l/m 1,6 km/h (1 Bft) W 270 10 min 0,000 mm 165 W/m 17,8 C 19,7 C 12,9 km/h (3 Bft) 99 %
02.08.2017 08:40 19,8 C 19,7 C 19,8 C 89 % 1018,0 hPa 0,0 l/m 3,2 km/h (1 Bft) SW 225 10 min 0,000 mm 299 W/m 17,9 C 19,8 C 11,3 km/h (2 Bft) 100 %
02.08.2017 08:50 20,3 C 19,8 C 20,3 C 89 % 1018,0 hPa 0,0 l/m 1,6 km/h (1 Bft) W-SW 247 10 min 0,000 mm 362 W/m 18,4 C 20,3 C 9,7 km/h (2 Bft) 99 %
02.08.2017 09:00 20,8 C 20,3 C 20,8 C 88 % 1018,1 hPa 0,0 l/m 1,6 km/h (1 Bft) S-SW 202 10 min 0,102 mm 424 W/m 18,7 C 20,8 C 9,7 km/h (2 Bft) 100 %
02.08.2017 09:10 21,0 C 20,8 C 21,0 C 89 % 1018,2 hPa 0,0 l/m 1,6 km/h (1 Bft) W-SW 247 10 min 0,000 mm 378 W/m 19,1 C 21,0 C 8,0 km/h (2 Bft) 100 %
02.08.2017 09:20 21,1 C 20,9 C 21,1 C 88 % 1018,3 hPa 0,0 l/m 0,0 km/h (0 Bft) W-SW 247 10 min 0,000 mm 264 W/m 19,0 C 21,1 C 8,0 km/h (2 Bft) 100 %
02.08.2017 09:30 21,1 C 21,0 C 21,1 C 88 % 1018,3 hPa 0,0 l/m 0,0 km/h (0 Bft) W-SW 247 10 min 0,000 mm 369 W/m 19,0 C 21,1 C 4,8 km/h (1 Bft) 100 %
02.08.2017 09:40 21,3 C 21,1 C 21,3 C 88 % 1018,3 hPa 0,0 l/m 0,0 km/h (0 Bft) S 180 10 min 0,000 mm 415 W/m 19,2 C 21,3 C 8,0 km/h (2 Bft) 100 %
02.08.2017 09:50 21,6 C 21,3 C 21,6 C 88 % 1018,3 hPa 0,0 l/m 1,6 km/h (1 Bft) S-SO 157 10 min 0,000 mm 475 W/m 19,5 C 21,6 C 11,3 km/h (2 Bft) 99 %
02.08.2017 10:00 21,9 C 21,6 C 21,9 C 87 % 1018,3 hPa 0,0 l/m 0,0 km/h (0 Bft) S-SO 157 10 min 0,178 mm 466 W/m 19,6 C 21,9 C 8,0 km/h (2 Bft) 100 %
02.08.2017 10:10 22,4 C 21,9 C 22,4 C 85 % 1018,3 hPa 0,0 l/m 1,6 km/h (1 Bft) S-SW 202 10 min 0,000 mm 610 W/m 19,7 C 22,4 C 11,3 km/h (2 Bft) 100 %
02.08.2017 10:20 22,8 C 22,4 C 22,8 C 86 % 1018,3 hPa 0,0 l/m 1,6 km/h (1 Bft) S 180 10 min 0,000 mm 679 W/m 20,3 C 22,8 C 9,7 km/h (2 Bft) 99 %
02.08.2017 10:30 23,1 C 22,8 C 23,1 C 84 % 1018,3 hPa 0,0 l/m 4,8 km/h (1 Bft) S-SO 157 10 min 0,000 mm 715 W/m 20,2 C 23,1 C 14,5 km/h (3 Bft) 99 %
02.08.2017 10:40 22,9 C 22,9 C 23,2 C 81 % 1018,3 hPa 0,0 l/m 1,6 km/h (1 Bft) S-SW 202 10 min 0,000 mm 311 W/m 19,5 C 22,9 C 14,5 km/h (3 Bft) 100 %
02.08.2017 10:50 22,6 C 22,6 C 22,9 C 82 % 1018,4 hPa 0,0 l/m 0,0 km/h (0 Bft) SW 225 10 min 0,000 mm 237 W/m 19,4 C 22,6 C 1,6 km/h (1 Bft) 100 %
02.08.2017 11:00 22,6 C 22,6 C 22,9 C 82 % 1018,5 hPa 0,0 l/m 0,0 km/h (0 Bft) S-SW 213 10 min 0,255 mm 383 W/m 19,4 C 22,6 C 1,6 km/h (1 Bft) 98 %
02.08.2017 11:10 23,1 C 22,6 C 23,1 C 81 % 1018,5 hPa 0,0 l/m 0,2 km/h (0 Bft) W-NW 293 10 min 0,000 mm 211 W/m 19,7 C 23,1 C 6,4 km/h (2 Bft) 97 %
02.08.2017 11:20 23,2 C 23,1 C 23,2 C 83 % 1018,5 hPa 0,0 l/m 0,0 km/h (0 Bft) W-NW 299 10 min 0,000 mm 527 W/m 20,1 C 23,2 C 1,6 km/h (1 Bft) 98 %
02.08.2017 11:30 23,3 C 23,2 C 23,4 C 82 % 1018,4 hPa 0,0 l/m 1,1 km/h (1 Bft) W 269 10 min 0,000 mm 290 W/m 20,0 C 23,3 C 9,7 km/h (2 Bft) 97 %
02.08.2017 11:40 23,4 C 23,3 C 23,4 C 81 % 1018,3 hPa 0,0 l/m 4,0 km/h (1 Bft) W 277 10 min 0,000 mm 381 W/m 19,9 C 23,4 C 9,7 km/h (2 Bft) 98 %
02.08.2017 11:50 23,7 C 23,4 C 23,7 C 82 % 1018,4 hPa 0,0 l/m 1,4 km/h (1 Bft) W 275 10 min 0,000 mm 879 W/m 20,4 C 23,7 C 4,8 km/h (1 Bft) 98 %
02.08.2017 12:00 24,7 C 23,7 C 24,7 C 79 % 1018,2 hPa 0,0 l/m 4,4 km/h (1 Bft) SW 232 10 min 0,280 mm 905 W/m 20,8 C 24,7 C 9,7 km/h (2 Bft) 98 %
02.08.2017 12:10 25,1 C 24,7 C 25,1 C 75 % 1018,3 hPa 0,0 l/m 5,3 km/h (1 Bft) S-SO 161 10 min 0,000 mm 925 W/m 20,3 C 25,1 C 14,5 km/h (3 Bft) 97 %
02.08.2017 12:20 25,4 C 25,0 C 25,4 C 77 % 1018,4 hPa 0,0 l/m 1,7 km/h (1 Bft) W-SW 250 10 min 0,000 mm 424 W/m 21,1 C 25,4 C 8,0 km/h (2 Bft) 98 %
02.08.2017 12:30 25,4 C 25,4 C 25,4 C 76 % 1018,3 hPa 0,0 l/m 1,4 km/h (1 Bft) W-SW 249 10 min 0,000 mm 322 W/m 20,9 C 25,4 C 9,7 km/h (2 Bft) 98 %
02.08.2017 12:40 24,8 C 24,8 C 25,4 C 77 % 1018,1 hPa 0,0 l/m 1,4 km/h (1 Bft) SW 235 10 min 0,000 mm 443 W/m 20,5 C 24,8 C 11,3 km/h (2 Bft) 99 %
02.08.2017 12:50 25,3 C 24,8 C 25,3 C 76 % 1018,0 hPa 0,0 l/m 5,3 km/h (1 Bft) W-SW 248 10 min 0,000 mm 780 W/m 20,8 C 25,3 C 9,7 km/h (2 Bft) 99 %
02.08.2017 13:00 25,8 C 25,3 C 25,8 C 75 % 1017,9 hPa 0,0 l/m 2,8 km/h (1 Bft) W-SW 241 10 min 0,406 mm 710 W/m 21,0 C 25,8 C 9,7 km/h (2 Bft) 100 %
02.08.2017 13:10 25,8 C 25,8 C 25,8 C 70 % 1017,9 hPa 0,0 l/m 2,0 km/h (1 Bft) W 260 10 min 0,000 mm 369 W/m 19,9 C 25,8 C 11,3 km/h (2 Bft) 100 %
02.08.2017 13:20 26,1 C 25,8 C 26,1 C 73 % 1017,9 hPa 0,0 l/m 4,3 km/h (1 Bft) S-SW 194 10 min 0,000 mm 705 W/m 20,9 C 26,1 C 11,3 km/h (2 Bft) 99 %
02.08.2017 13:30 26,4 C 26,1 C 26,4 C 73 % 1017,8 hPa 0,0 l/m 7,4 km/h (2 Bft) S-SO 155 10 min 0,000 mm 1072 W/m 21,2 C 26,2 C 16,1 km/h (3 Bft) 99 %
02.08.2017 13:40 25,9 C 25,9 C 26,4 C 70 % 1017,6 hPa 0,0 l/m 2,7 km/h (1 Bft) W 273 10 min 0,000 mm 309 W/m 20,0 C 25,9 C 9,7 km/h (2 Bft) 100 %
02.08.2017 13:50 26,0 C 25,8 C 26,0 C 72 % 1017,5 hPa 0,0 l/m 5,1 km/h (1 Bft) W-SW 248 10 min 0,000 mm 997 W/m 20,5 C 26,0 C 11,3 km/h (2 Bft) 100 %
02.08.2017 14:00 26,1 C 26,0 C 26,1 C 74 % 1017,5 hPa 0,0 l/m 4,2 km/h (1 Bft) W 260 10 min 0,407 mm 930 W/m 21,1 C 26,1 C 11,3 km/h (2 Bft) 99 %
02.08.2017 14:10 26,3 C 26,1 C 26,3 C 70 % 1017,5 hPa 0,0 l/m 3,4 km/h (1 Bft) W-NW 289 10 min 0,000 mm 355 W/m 20,4 C 26,3 C 9,7 km/h (2 Bft) 100 %
02.08.2017 14:20 26,3 C 26,2 C 26,4 C 71 % 1017,4 hPa 0,0 l/m 4,7 km/h (1 Bft) S 189 10 min 0,000 mm 807 W/m 20,6 C 26,3 C 14,5 km/h (3 Bft) 100 %
02.08.2017 14:30 26,4 C 26,2 C 26,4 C 69 % 1017,4 hPa 0,0 l/m 4,1 km/h (1 Bft) S 190 10 min 0,000 mm 874 W/m 20,2 C 26,4 C 16,1 km/h (3 Bft) 100 %
02.08.2017 14:40 26,5 C 26,4 C 26,6 C 71 % 1017,2 hPa 0,0 l/m 5,9 km/h (2 Bft) S-SO 159 10 min 0,000 mm 949 W/m 20,8 C 26,5 C 14,5 km/h (3 Bft) 100 %
02.08.2017 14:50 26,4 C 26,3 C 26,5 C 73 % 1017,1 hPa 0,0 l/m 3,7 km/h (1 Bft) S-SW 198 10 min 0,000 mm 933 W/m 21,2 C 26,4 C 11,3 km/h (2 Bft) 100 %
02.08.2017 15:00 26,6 C 26,4 C 26,6 C 70 % 1017,0 hPa 0,0 l/m 1,2 km/h (1 Bft) W 260 10 min 0,457 mm 831 W/m 20,7 C 26,6 C 14,5 km/h (3 Bft) 100 %
02.08.2017 15:10 26,8 C 26,6 C 26,8 C 69 % 1017,1 hPa 0,0 l/m 3,9 km/h (1 Bft) NW 304 10 min 0,000 mm 193 W/m 20,6 C 26,8 C 11,3 km/h (2 Bft) 91 %
02.08.2017 15:20 27,1 C 26,8 C 27,1 C 70 % 1017,0 hPa 0,0 l/m 2,2 km/h (1 Bft) W 271 10 min 0,000 mm 220 W/m 21,1 C 27,1 C 8,0 km/h (2 Bft) 99 %
02.08.2017 15:30 27,5 C 27,1 C 27,5 C 68 % 1016,8 hPa 0,0 l/m 1,3 km/h (1 Bft) W-SW 254 10 min 0,000 mm 851 W/m 21,0 C 27,5 C 12,9 km/h (3 Bft) 100 %
02.08.2017 15:40 27,6 C 27,5 C 27,6 C 66 % 1016,7 hPa 0,0 l/m 4,0 km/h (1 Bft) W-NW 286 10 min 0,000 mm 647 W/m 20,7 C 27,6 C 12,9 km/h (3 Bft) 100 %
02.08.2017 15:50 27,5 C 27,5 C 27,6 C 66 % 1016,8 hPa 0,0 l/m 1,5 km/h (1 Bft) W 280 10 min 0,000 mm 209 W/m 20,6 C 27,5 C 11,3 km/h (2 Bft) 100 %
02.08.2017 16:00 27,5 C 27,4 C 27,5 C 68 % 1016,8 hPa 0,0 l/m 1,5 km/h (1 Bft) W-SW 252 10 min 0,355 mm 719 W/m 21,0 C 27,5 C 11,3 km/h (2 Bft) 100 %
02.08.2017 16:10 27,7 C 27,5 C 27,7 C 65 % 1016,5 hPa 0,0 l/m 8,6 km/h (2 Bft) SW 227 10 min 0,000 mm 793 W/m 20,5 C 27,3 C 17,7 km/h (3 Bft) 100 %
02.08.2017 16:20 27,8 C 27,7 C 27,8 C 64 % 1016,5 hPa 0,0 l/m 5,2 km/h (1 Bft) W-NW 283 10 min 0,000 mm 740 W/m 20,3 C 27,8 C 11,3 km/h (2 Bft) 100 %
02.08.2017 16:30 27,8 C 27,8 C 27,9 C 63 % 1016,4 hPa 0,0 l/m 6,9 km/h (2 Bft) SW 214 10 min 0,000 mm 439 W/m 20,1 C 27,7 C 22,5 km/h (4 Bft) 100 %
02.08.2017 16:40 27,4 C 27,4 C 27,8 C 64 % 1016,4 hPa 0,0 l/m 7,0 km/h (2 Bft) W-SW 243 10 min 0,000 mm 279 W/m 20,0 C 27,3 C 14,5 km/h (3 Bft) 100 %
02.08.2017 16:50 27,4 C 27,4 C 27,4 C 64 % 1016,3 hPa 0,0 l/m 6,0 km/h (2 Bft) W 267 10 min 0,000 mm 610 W/m 20,0 C 27,4 C 19,3 km/h (3 Bft) 100 %
02.08.2017 17:00 27,6 C 27,4 C 27,6 C 62 % 1016,3 hPa 0,0 l/m 6,3 km/h (2 Bft) W 277 10 min 0,381 mm 220 W/m 19,6 C 27,6 C 19,3 km/h (3 Bft) 100 %
02.08.2017 17:10 27,8 C 27,6 C 27,8 C 62 % 1016,3 hPa 0,0 l/m 3,2 km/h (1 Bft) S-SW 205 0 min 0,000 mm 144 W/m 19,8 C 27,8 C 19,3 km/h (3 Bft) 100 %
02.08.2017 17:20 27,7 C 27,7 C 27,9 C 62 % 1016,3 hPa 0,0 l/m 7,0 km/h (2 Bft) W 275 0 min 0,000 mm 144 W/m 19,7 C 27,6 C 16,1 km/h (3 Bft) 100 %
02.08.2017 17:30 27,4 C 27,4 C 27,7 C 58 % 1016,3 hPa 0,0 l/m 5,8 km/h (2 Bft) W-NW 293 10 min 0,000 mm 176 W/m 18,4 C 27,4 C 14,5 km/h (3 Bft) 100 %
02.08.2017 17:40 27,2 C 27,2 C 27,4 C 61 % 1016,1 hPa 0,0 l/m 1,4 km/h (1 Bft) W 278 10 min 0,000 mm 225 W/m 19,0 C 27,2 C 8,0 km/h (2 Bft) 100 %
02.08.2017 17:50 27,1 C 27,1 C 27,2 C 62 % 1015,9 hPa 0,0 l/m 0,3 km/h (0 Bft) W 259 10 min 0,000 mm 265 W/m 19,2 C 27,1 C 8,0 km/h (2 Bft) 100 %
02.08.2017 18:00 27,1 C 27,1 C 27,1 C 61 % 1015,7 hPa 0,0 l/m 0,9 km/h (0 Bft) W-NW 300 0 min 0,153 mm 139 W/m 18,9 C 27,1 C 11,3 km/h (2 Bft) 100 %
02.08.2017 18:10 26,8 C 26,8 C 27,1 C 62 % 1015,5 hPa 0,0 l/m 2,5 km/h (1 Bft) W-NW 283 0 min 0,000 mm 118 W/m 18,9 C 26,8 C 16,1 km/h (3 Bft) 100 %
02.08.2017 18:20 26,7 C 26,7 C 26,8 C 64 % 1015,5 hPa 0,0 l/m 0,4 km/h (0 Bft) SW 224 10 min 0,000 mm 165 W/m 19,3 C 26,7 C 9,7 km/h (2 Bft) 100 %
02.08.2017 18:30 26,6 C 26,6 C 26,7 C 64 % 1015,5 hPa 0,0 l/m 1,8 km/h (1 Bft) W-SW 240 10 min 0,000 mm 158 W/m 19,2 C 26,6 C 11,3 km/h (2 Bft) 100 %
02.08.2017 18:40 26,5 C 26,5 C 26,6 C 63 % 1015,3 hPa 0,0 l/m 0,3 km/h (0 Bft) W-SW 238 0 min 0,000 mm 120 W/m 18,9 C 26,5 C 6,4 km/h (2 Bft) 100 %
02.08.2017 18:50 26,5 C 26,5 C 26,6 C 65 % 1015,4 hPa 0,0 l/m 3,0 km/h (1 Bft) W 267 0 min 0,000 mm 105 W/m 19,4 C 26,5 C 16,1 km/h (3 Bft) 100 %
02.08.2017 19:00 26,6 C 26,5 C 26,6 C 65 % 1015,5 hPa 0,0 l/m 2,3 km/h (1 Bft) W 269 0 min 0,101 mm 97 W/m 19,5 C 26,6 C 6,4 km/h (2 Bft) 100 %
02.08.2017 19:10 26,4 C 26,4 C 26,6 C 64 % 1015,4 hPa 0,0 l/m 3,9 km/h (1 Bft) SW 223 0 min 0,000 mm 81 W/m 19,0 C 26,4 C 8,0 km/h (2 Bft) 100 %
02.08.2017 19:20 26,3 C 26,3 C 26,4 C 65 % 1015,3 hPa 0,0 l/m 1,2 km/h (1 Bft) SW 226 0 min 0,000 mm 70 W/m 19,2 C 26,3 C 4,8 km/h (1 Bft) 100 %
02.08.2017 19:30 26,1 C 26,1 C 26,3 C 65 % 1015,4 hPa 0,0 l/m 3,7 km/h (1 Bft) SW 223 0 min 0,000 mm 69 W/m 19,0 C 26,1 C 9,7 km/h (2 Bft) 100 %
02.08.2017 19:40 26,0 C 26,0 C 26,1 C 66 % 1015,5 hPa 0,0 l/m 2,7 km/h (1 Bft) SW 221 0 min 0,000 mm 51 W/m 19,1 C 26,0 C 6,4 km/h (2 Bft) 99 %
02.08.2017 19:50 25,7 C 25,7 C 26,0 C 66 % 1015,4 hPa 0,0 l/m 0,9 km/h (0 Bft) SW 225 0 min 0,000 mm 39 W/m 18,9 C 25,7 C 6,4 km/h (2 Bft) 100 %
02.08.2017 20:00 25,4 C 25,4 C 25,7 C 67 % 1015,3 hPa 0,0 l/m 0,0 km/h (0 Bft) SW 227 0 min 0,051 mm 39 W/m 18,8 C 25,4 C 1,6 km/h (1 Bft) 100 %
02.08.2017 20:10 25,1 C 25,1 C 25,4 C 71 % 1015,2 hPa 0,0 l/m 0,0 km/h (0 Bft) SW 227 0 min 0,000 mm 40 W/m 19,5 C 25,1 C 0,0 km/h (0 Bft) 100 %
02.08.2017 20:20 24,6 C 24,6 C 25,1 C 72 % 1015,2 hPa 0,0 l/m 0,0 km/h (0 Bft) SW 227 0 min 0,000 mm 28 W/m 19,2 C 24,6 C 0,0 km/h (0 Bft) 99 %
02.08.2017 20:30 24,1 C 24,1 C 24,6 C 74 % 1015,3 hPa 0,0 l/m 0,0 km/h (0 Bft) SW 227 0 min 0,000 mm 32 W/m 19,2 C 24,1 C 0,0 km/h (0 Bft) 100 %
02.08.2017 20:40 23,8 C 23,8 C 24,1 C 75 % 1015,3 hPa 0,0 l/m 0,0 km/h (0 Bft) SW 227 0 min 0,000 mm 21 W/m 19,1 C 23,8 C 0,0 km/h (0 Bft) 100 %
02.08.2017 20:50 23,3 C 23,3 C 23,8 C 77 % 1015,3 hPa 0,0 l/m 0,0 km/h (0 Bft) SW 227 0 min 0,000 mm 9 W/m 19,0 C 23,3 C 0,0 km/h (0 Bft) 100 %
02.08.2017 21:00 22,9 C 22,9 C 23,3 C 76 % 1015,3 hPa 0,0 l/m 0,0 km/h (0 Bft) SW 225 0 min 0,026 mm 0 W/m 18,4 C 22,9 C 0,0 km/h (0 Bft) 100 %
02.08.2017 21:10 22,6 C 22,6 C 22,9 C 77 % 1015,3 hPa 0,0 l/m 0,0 km/h (0 Bft) N 0 0 min 0,000 mm 0 W/m 18,4 C 22,6 C 0,0 km/h (0 Bft) 98 %
02.08.2017 21:20 22,3 C 22,3 C 22,6 C 78 % 1015,3 hPa 0,0 l/m 0,0 km/h (0 Bft) N 0 0 min 0,000 mm 0 W/m 18,3 C 22,3 C 0,0 km/h (0 Bft) 97 %
02.08.2017 21:30 22,0 C 22,0 C 22,3 C 79 % 1015,5 hPa 0,0 l/m 0,0 km/h (0 Bft) N 0 0 min 0,000 mm 0 W/m 18,2 C 22,0 C 0,0 km/h (0 Bft) 98 %
02.08.2017 21:40 21,7 C 21,7 C 22,0 C 80 % 1015,4 hPa 0,0 l/m 0,0 km/h (0 Bft) N 0 0 min 0,000 mm 0 W/m 18,1 C 21,7 C 0,0 km/h (0 Bft) 97 %
02.08.2017 21:50 21,4 C 21,4 C 21,7 C 81 % 1015,4 hPa 0,0 l/m 0,0 km/h (0 Bft) N 0 0 min 0,000 mm 0 W/m 18,0 C 21,4 C 0,0 km/h (0 Bft) 98 %
02.08.2017 22:00 21,1 C 21,1 C 21,4 C 81 % 1015,6 hPa 0,0 l/m 0,0 km/h (0 Bft) N 0 0 min 0,000 mm 0 W/m 17,7 C 21,1 C 0,0 km/h (0 Bft) 97 %
02.08.2017 22:10 20,7 C 20,7 C 21,1 C 82 % 1015,5 hPa 0,0 l/m 0,0 km/h (0 Bft) N 0 0 min 0,000 mm 0 W/m 17,5 C 20,7 C 0,0 km/h (0 Bft) 97 %
02.08.2017 22:20 20,4 C 20,4 C 20,7 C 83 % 1015,5 hPa 0,0 l/m 0,0 km/h (0 Bft) N 0 0 min 0,000 mm 0 W/m 17,4 C 20,4 C 0,0 km/h (0 Bft) 98 %
02.08.2017 22:30 20,3 C 20,3 C 20,4 C 84 % 1015,5 hPa 0,0 l/m 0,0 km/h (0 Bft) N 0 0 min 0,000 mm 0 W/m 17,5 C 20,3 C 0,0 km/h (0 Bft) 97 %
02.08.2017 22:40 20,1 C 20,1 C 20,3 C 84 % 1015,4 hPa 0,0 l/m 0,0 km/h (0 Bft) N 0 0 min 0,000 mm 0 W/m 17,3 C 20,1 C 0,0 km/h (0 Bft) 98 %
02.08.2017 22:50 19,9 C 19,9 C 20,1 C 85 % 1015,3 hPa 0,0 l/m 0,0 km/h (0 Bft) N 0 0 min 0,000 mm 0 W/m 17,3 C 19,9 C 0,0 km/h (0 Bft) 97 %
02.08.2017 23:00 19,7 C 19,7 C 19,9 C 86 % 1015,4 hPa 0,0 l/m 0,0 km/h (0 Bft) N 0 0 min 0,025 mm 0 W/m 17,3 C 19,7 C 0,0 km/h (0 Bft) 98 %
02.08.2017 23:10 19,6 C 19,6 C 19,7 C 86 % 1015,5 hPa 0,0 l/m 0,0 km/h (0 Bft) N 0 0 min 0,000 mm 0 W/m 17,2 C 19,6 C 0,0 km/h (0 Bft) 97 %
02.08.2017 23:20 19,4 C 19,4 C 19,6 C 87 % 1015,5 hPa 0,0 l/m 0,0 km/h (0 Bft) N 0 0 min 0,000 mm 0 W/m 17,2 C 19,4 C 0,0 km/h (0 Bft) 98 %
02.08.2017 23:30 19,3 C 19,3 C 19,4 C 87 % 1015,5 hPa 0,0 l/m 1,6 km/h (1 Bft) NW 315 0 min 0,000 mm 0 W/m 17,1 C 19,3 C 4,8 km/h (1 Bft) 98 %
02.08.2017 23:40 19,1 C 19,1 C 19,3 C 87 % 1015,4 hPa 0,0 l/m 0,0 km/h (0 Bft) NW 315 0 min 0,000 mm 0 W/m 16,9 C 19,1 C 4,8 km/h (1 Bft) 96 %
02.08.2017 23:50 19,0 C 19,0 C 19,1 C 87 % 1015,3 hPa 0,0 l/m 0,0 km/h (0 Bft) NW 315 0 min 0,000 mm 0 W/m 16,8 C 19,0 C 1,6 km/h (1 Bft) 98 %
_ Min-Zeit 02:40 02:40 03:00 17:30 20:10 - 00:00 - - - - - 23:50 02:40 00:00 03:30
Minimum _ 18,7 C 18,7 C 18,7 C 58 % 1015,2 hPa - 0,0 km/h (0 Bft) - - - - - 16,8 C 18,7 C 0,0 km/h (0 Bft) 89 %
_ Max-Zeit 16:30 16:30 16:30 01:20 11:00 00:00 16:10 - - 08:30 15:00 13:30 13:30 16:20 16:30 02:00
Maximum _ 27,9 C 27,8 C 27,9 C 89 % 1018,5 hPa 0,2 l/m 8,6 km/h
SW (2 Bft)
- - 10 min 0,457 mm 1072 W/m 21,2 C 27,8 C 22,5 km/h
S-SW (4 Bft)
100 %
Durchschnitt _ 22,4 C 22,3 C 22,5 C 80 % 1016,7 hPa #0,2 l/m 2,0 km/h (1 Bft) S-SO - #9:30 h #3,302 mm 363 W/m 18,6 C 22,4 C 7,0 km/h (2 Bft) 99 %
PRIVATE WETTERSTATION BILLIGHEIM-ALLFELD - www.neckar-odenwald-wetter.de - Holger Sonntag